Terminal Aerodrome Forecast
Issued by NWS Twin Cities, MN

Home | Current Version | Previous Version | Graphics & Text | Print | Product List | Glossary On
Versions: 1 2 3 4 5 6 7 8 9 10 11 12 13 14 15 16 17 18 19 20 21 22 23 24 25 26 27 28 29 30 31 32
215
FTUS43 KMPX 030520
TAFMSP
TAF
KMSP 030520Z 0306/0412 23005KT P6SM VCSH OVC020
     FM030900 27004KT P6SM OVC018
     FM031600 19004KT P6SM OVC022
     FM032000 15006KT P6SM OVC035
     FM040300 14007KT P6SM BKN030 OVC090 PROB30 0405/0408 4SM -SN
     FM040800 15008KT 2SM -SN OVC018=

USA.gov is the U.S. government's official web portal to all federal, state and local government web resources and services.